Torna al catalogo

STARLINK-11300

AttivoComunicazioniVLEO
NORAD 61243·PAYLOAD·🇺🇸 United States

Lanciato Sep 25, 2024 da Vandenberg Space Force Base

Loading…

Prossimi Passaggi (prossime 24 ore)

TLE

AggiornatoSource: CelesTrak SupGP

Epoca: Sep 14, 2026, 22:44 UTC

1 61243C 24175A   26257.94770833  .00024899  00000+0  20489-3 0  2572
2 61243  53.1577 203.3162 0001022  95.9633 179.6621 15.69721442    17

Traccia STARLINK-11300 in tempo reale con AllMySat

Download on the App Store